CYZ255 ZSNJ-ELLX

Flight info

Callsign CYZ255
Flight time N/A
Altitude 30100
Route HFE61X HFE B208 NIXAL Z156 ENKAN/K0904S0980 Z156 UDA R372 AMUTA/K0893F320 R229 KESUM R372 ADONI B800 KUMOD/K0883F340 N869 UNISO L870 UMODI/K0896F360 L870 RANVA/N0482F360 L870 RESMO DCT TODNA P863 DEREX DCT KOLJA DCT GORPI Z80 TILAV L87 KETAP DCT PENEK DCT POVEL DCT ABAMI Z717 NEREL/N0444F240 T855 LNO
Aircraft B77L/H-SDE1E2E3FGHIJ2J3J4J5M1RWXY/LB1D1

Departure

Time 2026-04-24 20:44
Airport Nanjing Lukou International Airport (ZSNJ)

Arrival

Time N/A
Airport Luxembourg-Findel International Airport (ELLX)
Time Latitude Longitude Altitude Speed Heading
2026-04-24 20:23 31.72797 118.84866 63 ft 0 kts 58°
2026-04-24 20:35 31.72796 118.84864 62 ft 2 kts 58°
2026-04-24 20:35 31.72777 118.84829 54 ft 4 kts 58°
2026-04-24 20:35 31.72770 118.84816 54 ft 4 kts 55°
2026-04-24 20:35 31.72755 118.84798 54 ft 4 kts 13°
2026-04-24 20:36 31.72733 118.84799 54 ft 4 kts 338°
2026-04-24 20:36 31.72709 118.84813 56 ft 3 kts 328°
2026-04-24 20:36 31.72705 118.84816 56 ft 0 kts 328°
2026-04-24 20:39 31.72707 118.84815 62 ft 3 kts 324°
2026-04-24 20:39 31.72716 118.84808 54 ft 2 kts 328°
2026-04-24 20:39 31.72727 118.84800 55 ft 2 kts 328°
2026-04-24 20:39 31.72786 118.84758 55 ft 19 kts 328°
2026-04-24 20:40 31.72903 118.84671 55 ft 19 kts 327°
2026-04-24 20:40 31.72992 118.84609 56 ft 10 kts 343°
2026-04-24 20:40 31.73047 118.84634 55 ft 9 kts 46°
2026-04-24 20:40 31.73083 118.84693 56 ft 9 kts 57°
2026-04-24 20:41 31.73122 118.84748 57 ft 9 kts 28°
2026-04-24 20:41 31.73181 118.84734 54 ft 9 kts 326°
2026-04-24 20:41 31.73234 118.84693 61 ft 9 kts 326°
2026-04-24 20:41 31.73268 118.84670 54 ft 0 kts 329°
2026-04-24 20:42 31.73287 118.84656 54 ft 13 kts 329°
2026-04-24 20:42 31.73384 118.84640 58 ft 13 kts 43°
2026-04-24 20:43 31.73417 118.84701 56 ft 5 kts 58°
2026-04-24 20:43 31.73466 118.84793 53 ft 23 kts 58°
2026-04-24 20:43 31.73630 118.85098 52 ft 77 kts 58°
2026-04-24 20:43 31.74041 118.85870 55 ft 145 kts 58°
2026-04-24 20:44 31.74704 118.87064 120 ft 195 kts 57°
2026-04-24 20:44 31.75437 118.88421 594 ft 200 kts 46°
2026-04-24 20:44 31.75992 118.89299 760 ft 203 kts 47°
2026-04-24 20:45 31.76226 118.89662 842 ft 207 kts 40°
2026-04-24 20:45 31.77029 118.90374 955 ft 211 kts 26°
2026-04-24 20:45 31.78089 118.91541 1278 ft 209 kts 49°
2026-04-24 20:46 31.78785 118.93014 1675 ft 205 kts 57°
2026-04-24 20:46 31.78855 118.93177 1722 ft 204 kts 57°
2026-04-24 20:46 31.79394 118.94439 2134 ft 204 kts 67°
2026-04-24 20:46 31.80002 118.96031 2396 ft 219 kts 66°
2026-04-24 20:47 31.80672 118.97669 2867 ft 225 kts 64°
2026-04-24 20:47 31.81406 118.99318 3422 ft 228 kts 63°
2026-04-24 20:47 31.82190 119.00975 3839 ft 240 kts 61°
2026-04-24 20:47 31.83069 119.02742 4075 ft 259 kts 59°
2026-04-24 20:48 31.84025 119.04591 4617 ft 267 kts 59°
2026-04-24 20:48 31.84998 119.06441 5253 ft 271 kts 58°
2026-04-24 20:48 31.86000 119.08333 5948 ft 273 kts 58°
2026-04-24 20:48 31.87026 119.10260 6640 ft 274 kts 55°
2026-04-24 20:49 31.88355 119.11816 7082 ft 279 kts 27°
2026-04-24 20:49 31.90227 119.12392 7623 ft 282 kts 358°
2026-04-24 20:49 31.92137 119.11886 8247 ft 284 kts 333°
2026-04-24 20:49 31.93679 119.10453 8849 ft 287 kts 307°
2026-04-24 20:50 31.94546 119.08341 9439 ft 291 kts 282°
2026-04-24 20:50 31.94695 119.05974 9969 ft 293 kts 269°
2026-04-24 20:50 31.94269 119.03605 10266 ft 304 kts 242°
2026-04-24 20:50 31.93125 119.01454 10414 ft 319 kts 237°
2026-04-24 20:51 31.91861 118.99199 10584 ft 339 kts 237°
2026-04-24 20:51 31.90534 118.96797 10751 ft 359 kts 238°
2026-04-24 20:51 31.89160 118.94263 11150 ft 372 kts 238°
2026-04-24 20:51 31.87770 118.91663 11696 ft 378 kts 238°
2026-04-24 20:52 31.86369 118.89028 12392 ft 381 kts 239°
2026-04-24 20:52 31.84987 118.86353 13104 ft 380 kts 243°
2026-04-24 20:52 31.84175 118.83398 13615 ft 383 kts 265°
2026-04-24 20:52 31.83978 118.80313 14099 ft 386 kts 266°
2026-04-24 20:53 31.83740 118.77104 14700 ft 389 kts 265°
2026-04-24 20:53 31.83480 118.74009 15399 ft 389 kts 264°
2026-04-24 20:53 31.83196 118.70779 16109 ft 390 kts 264°
2026-04-24 20:53 31.82911 118.67594 16699 ft 393 kts 264°
2026-04-24 20:54 31.82627 118.64432 17291 ft 396 kts 264°
2026-04-24 20:54 31.82331 118.61149 17906 ft 398 kts 264°
2026-04-24 20:54 31.82037 118.57894 18497 ft 401 kts 264°
2026-04-24 20:54 31.81745 118.54672 19027 ft 402 kts 264°
2026-04-24 20:55 31.81449 118.51397 19562 ft 404 kts 264°
2026-04-24 20:55 31.81149 118.48099 20090 ft 406 kts 264°
2026-04-24 20:55 31.80847 118.44790 20615 ft 408 kts 264°
2026-04-24 20:55 31.80544 118.41470 21125 ft 410 kts 264°
2026-04-24 20:56 31.80238 118.38127 21645 ft 412 kts 264°
2026-04-24 20:56 31.79929 118.34759 22149 ft 414 kts 264°
2026-04-24 20:56 31.79618 118.31391 22645 ft 417 kts 264°
2026-04-24 20:56 31.79372 118.27983 23142 ft 419 kts 267°
2026-04-24 20:57 31.79293 118.24564 23628 ft 421 kts 269°
2026-04-24 20:57 31.79271 118.21101 24031 ft 424 kts 269°
2026-04-24 20:57 31.79245 118.17636 24412 ft 427 kts 269°
2026-04-24 20:57 31.79195 118.14114 24778 ft 430 kts 268°
2026-04-24 20:58 31.79126 118.10589 25172 ft 432 kts 268°
2026-04-24 20:58 31.79053 118.07047 25560 ft 434 kts 268°
2026-04-24 20:58 31.78986 118.03481 25942 ft 437 kts 268°
2026-04-24 20:58 31.78922 117.99906 26304 ft 439 kts 268°
2026-04-24 20:59 31.78860 117.96310 26656 ft 442 kts 268°
2026-04-24 20:59 31.78795 117.92678 27024 ft 444 kts 268°
2026-04-24 20:59 31.78729 117.89036 27384 ft 446 kts 268°
2026-04-24 20:59 31.78662 117.85445 27735 ft 449 kts 268°
2026-04-24 21:00 31.78592 117.81757 28076 ft 451 kts 268°
2026-04-24 21:00 31.78521 117.78053 28403 ft 454 kts 268°
2026-04-24 21:00 31.78448 117.74329 28737 ft 456 kts 268°
2026-04-24 21:00 31.78373 117.70599 29051 ft 458 kts 268°
2026-04-24 21:01 31.78298 117.66847 29339 ft 460 kts 268°
2026-04-24 21:01 31.78220 117.63076 29630 ft 462 kts 268°
2026-04-24 21:01 31.78142 117.59315 29901 ft 464 kts 268°
2026-04-24 21:01 31.78062 117.55491 30112 ft 467 kts 268°
2026-04-24 21:02 31.77897 117.47853 30176 ft 466 kts 268°
2026-04-24 21:02 31.77730 117.40283 30191 ft 462 kts 268°
2026-04-24 21:03 31.77770 117.32749 30178 ft 460 kts 281°
2026-04-24 21:03 31.78706 117.29161 30187 ft 462 kts 293°
2026-04-24 21:03 31.80355 117.25917 30178 ft 465 kts 307°
2026-04-24 21:04 31.84618 117.20172 30189 ft 469 kts 309°
2026-04-24 21:04 31.88919 117.14355 30190 ft 473 kts 309°
2026-04-24 21:05 31.93182 117.08440 30183 ft 475 kts 308°
2026-04-24 21:05 31.97423 117.02525 30179 ft 476 kts 308°
2026-04-24 21:06 32.01693 116.96590 30174 ft 474 kts 309°
2026-04-24 21:06 32.05962 116.90674 30176 ft 472 kts 309°
2026-04-24 21:07 32.10202 116.84785 30178 ft 470 kts 309°
2026-04-24 21:07 32.14425 116.78904 30176 ft 469 kts 309°
2026-04-24 21:08 32.18639 116.73028 30181 ft 468 kts 309°
2026-04-24 21:08 32.22805 116.67114 30179 ft 469 kts 308°
2026-04-24 21:09 32.26947 116.61145 30176 ft 470 kts 308°
2026-04-24 21:09 32.31092 116.55171 30173 ft 471 kts 308°
2026-04-24 21:10 32.35251 116.49182 30176 ft 472 kts 308°
2026-04-24 21:10 32.39417 116.43177 30172 ft 473 kts 308°
2026-04-24 21:11 32.43589 116.37154 30178 ft 473 kts 308°
2026-04-24 21:11 32.47777 116.31097 30177 ft 474 kts 308°
2026-04-24 21:12 32.51245 116.26072 30179 ft 474 kts 308°
2026-04-24 21:12 32.56128 116.18990 30174 ft 475 kts 308°
2026-04-24 21:13 32.60342 116.12969 30172 ft 475 kts 309°
2026-04-24 21:13 32.64605 116.06973 30179 ft 475 kts 309°
2026-04-24 21:14 32.68818 116.01027 30177 ft 475 kts 309°
2026-04-24 21:14 32.73077 115.94986 30171 ft 475 kts 309°
2026-04-24 21:15 32.77315 115.88961 30175 ft 476 kts 309°
2026-04-24 21:15 32.81560 115.82917 30172 ft 476 kts 309°
2026-04-24 21:16 32.85811 115.76857 30173 ft 477 kts 309°
2026-04-24 21:16 32.89352 115.71819 30170 ft 477 kts 310°
2026-04-24 21:17 32.93708 115.65851 30169 ft 478 kts 310°
2026-04-24 21:17 32.98092 115.59914 30165 ft 478 kts 310°
2026-04-24 21:18 33.02474 115.53946 30166 ft 478 kts 310°
2026-04-24 21:18 33.06844 115.47960 30168 ft 478 kts 310°
2026-04-24 21:19 33.11206 115.41969 30165 ft 479 kts 310°
2026-04-24 21:19 33.15559 115.35980 30164 ft 479 kts 310°
2026-04-24 21:20 33.22111 115.26949 30160 ft 479 kts 310°
2026-04-24 21:21 33.26469 115.20932 30160 ft 478 kts 310°
2026-04-24 21:21 33.30820 115.14913 30161 ft 478 kts 310°
2026-04-24 21:22 33.35167 115.08890 30160 ft 478 kts 310°
2026-04-24 21:22 33.39506 115.02867 30159 ft 477 kts 310°
2026-04-24 21:23 33.43809 114.96885 30160 ft 476 kts 310°
2026-04-24 21:23 33.48133 114.90863 30158 ft 476 kts 310°
2026-04-24 21:24 33.52441 114.84853 30155 ft 475 kts 310°
2026-04-24 21:24 33.56746 114.78837 30158 ft 475 kts 310°
2026-04-24 21:25 33.61075 114.72825 30148 ft 475 kts 311°
2026-04-24 21:25 33.65478 114.66912 30149 ft 475 kts 313°
2026-04-24 21:26 33.70378 114.61653 30145 ft 475 kts 321°
2026-04-24 21:26 33.75609 114.56735 30148 ft 476 kts 321°
2026-04-24 21:27 33.80796 114.51764 30144 ft 476 kts 320°
2026-04-24 21:27 33.85986 114.46805 30144 ft 477 kts 321°
2026-04-24 21:28 33.91192 114.41922 30142 ft 478 kts 321°
2026-04-24 21:28 33.96484 114.36953 30144 ft 479 kts 321°
2026-04-24 21:29 34.01693 114.32039 30142 ft 479 kts 321°
2026-04-24 21:29 34.06984 114.27034 30139 ft 480 kts 321°
2026-04-24 21:30 34.12201 114.22089 30135 ft 480 kts 321°
2026-04-24 21:30 34.17449 114.17109 30135 ft 479 kts 321°
2026-04-24 21:31 34.22680 114.12136 30135 ft 479 kts 321°
2026-04-24 21:31 34.27925 114.07142 30131 ft 479 kts 321°
2026-04-24 21:32 34.33163 114.02146 30127 ft 479 kts 321°
2026-04-24 21:32 34.38395 113.97147 30125 ft 479 kts 321°
2026-04-24 21:33 34.43609 113.92157 30121 ft 479 kts 321°
2026-04-24 21:33 34.48868 113.87206 30125 ft 479 kts 325°
2026-04-24 21:34 34.54767 113.83435 30132 ft 480 kts 337°
2026-04-24 21:34 34.61161 113.81086 30133 ft 481 kts 344°
2026-04-24 21:35 34.67638 113.79049 30124 ft 481 kts 344°
2026-04-24 21:35 34.74095 113.76950 30122 ft 480 kts 343°
2026-04-24 21:36 34.80550 113.74809 30118 ft 479 kts 343°
2026-04-24 21:36 34.86967 113.72635 30120 ft 478 kts 341°
2026-04-24 21:37 34.93197 113.69946 30121 ft 476 kts 339°
2026-04-24 21:37 34.99430 113.67152 30116 ft 475 kts 339°
2026-04-24 21:38 35.05641 113.64388 30119 ft 475 kts 339°
2026-04-24 21:38 35.11858 113.61639 30120 ft 475 kts 339°
2026-04-24 21:39 35.18021 113.58913 30120 ft 475 kts 339°
2026-04-24 21:39 35.24294 113.56134 30119 ft 476 kts 339°
2026-04-24 21:40 35.30484 113.53386 30119 ft 477 kts 339°
2026-04-24 21:40 35.36759 113.50595 30125 ft 477 kts 339°
2026-04-24 21:41 35.43006 113.47812 30128 ft 477 kts 339°
2026-04-24 21:41 35.49213 113.45066 30115 ft 477 kts 339°
2026-04-24 21:42 35.55459 113.42329 30135 ft 476 kts 339°
2026-04-24 21:42 35.61692 113.39585 30141 ft 475 kts 339°
2026-04-24 21:43 35.67890 113.36816 30138 ft 473 kts 339°
2026-04-24 21:43 35.74058 113.34042 30151 ft 471 kts 340°
2026-04-24 21:44 35.80198 113.31282 30156 ft 468 kts 340°
2026-04-24 21:44 35.86302 113.28539 30157 ft 466 kts 340°
2026-04-24 21:45 35.92389 113.25831 30161 ft 464 kts 340°
2026-04-24 21:45 35.98459 113.23132 30164 ft 463 kts 340°
2026-04-24 21:46 36.04506 113.20435 30163 ft 461 kts 341°
2026-04-24 21:46 36.10544 113.17735 30165 ft 460 kts 341°
2026-04-24 21:47 36.16549 113.15044 30170 ft 459 kts 341°
2026-04-24 21:47 36.22558 113.12350 30165 ft 458 kts 341°
2026-04-24 21:48 36.28658 113.10123 30175 ft 456 kts 347°
2026-04-24 21:48 36.34806 113.08176 30175 ft 456 kts 347°
2026-04-24 21:49 36.40910 113.06224 30173 ft 456 kts 347°
2026-04-24 21:49 36.47043 113.04237 30168 ft 455 kts 347°
2026-04-24 21:50 36.53175 113.02240 30171 ft 455 kts 347°
2026-04-24 21:50 36.59285 113.00248 30177 ft 453 kts 347°
2026-04-24 21:51 36.65391 112.98254 30181 ft 453 kts 347°
2026-04-24 21:51 36.71467 112.96267 30186 ft 452 kts 347°
2026-04-24 21:52 36.77546 112.94276 30181 ft 451 kts 348°
2026-04-24 21:52 36.83622 112.92272 30184 ft 451 kts 347°
2026-04-24 21:53 36.89683 112.90251 30183 ft 450 kts 348°
2026-04-24 21:53 36.95728 112.88232 30191 ft 449 kts 348°
2026-04-24 21:54 37.01776 112.86213 30185 ft 449 kts 348°
2026-04-24 21:54 37.07813 112.84199 30175 ft 449 kts 348°
2026-04-24 21:55 37.13859 112.82205 30170 ft 449 kts 348°
2026-04-24 21:55 37.19859 112.80226 30178 ft 448 kts 348°
2026-04-24 21:56 37.25893 112.78230 30160 ft 449 kts 348°
2026-04-24 21:56 37.30910 112.76566 30166 ft 449 kts 348°
2026-04-24 21:57 37.36997 112.74544 30152 ft 449 kts 348°
2026-04-24 21:57 37.43026 112.72537 30156 ft 449 kts 348°
2026-04-24 21:58 37.49051 112.70529 30160 ft 449 kts 347°
2026-04-24 21:58 37.55097 112.68510 30162 ft 449 kts 347°
2026-04-24 21:59 37.61175 112.66478 30169 ft 449 kts 347°
2026-04-24 21:59 37.67221 112.64482 30175 ft 449 kts 347°
2026-04-24 22:00 37.73271 112.62504 30175 ft 448 kts 347°
2026-04-24 22:00 37.79355 112.60843 30178 ft 447 kts 351°
2026-04-24 22:01 37.85442 112.59404 30173 ft 447 kts 350°
2026-04-24 22:01 37.91598 112.57925 30167 ft 447 kts 351°
2026-04-24 22:02 37.97680 112.56500 30162 ft 446 kts 351°
2026-04-24 22:02 38.02368 112.55403 30159 ft 446 kts 351°
2026-04-24 22:03 38.08565 112.53947 30157 ft 447 kts 350°
2026-04-24 22:03 38.14693 112.52501 30140 ft 448 kts 350°
2026-04-24 22:04 38.20829 112.51050 30140 ft 449 kts 350°
2026-04-24 22:04 38.26980 112.49593 30147 ft 449 kts 350°
2026-04-24 22:05 38.33140 112.48130 30136 ft 450 kts 350°
2026-04-24 22:05 38.39300 112.46666 30143 ft 451 kts 350°
2026-04-24 22:06 38.45477 112.45195 30134 ft 452 kts 350°
2026-04-24 22:06 38.51663 112.43719 30136 ft 452 kts 350°
2026-04-24 22:07 38.57853 112.42240 30136 ft 453 kts 349°
2026-04-24 22:07 38.64010 112.40766 30136 ft 453 kts 349°
2026-04-24 22:08 38.70212 112.39279 30131 ft 453 kts 349°
2026-04-24 22:08 38.76409 112.37789 30168 ft 454 kts 349°
2026-04-24 22:09 38.82632 112.36292 30161 ft 455 kts 349°
2026-04-24 22:09 38.88857 112.34792 30149 ft 455 kts 349°
2026-04-24 22:10 38.95088 112.33286 30160 ft 456 kts 349°
2026-04-24 22:10 39.01322 112.31778 30157 ft 456 kts 349°
2026-04-24 22:11 39.07559 112.30266 30159 ft 456 kts 349°
2026-04-24 22:11 39.13803 112.28749 30158 ft 456 kts 348°
2026-04-24 22:12 39.20051 112.27229 30157 ft 457 kts 348°
2026-04-24 22:12 39.26301 112.25706 30151 ft 457 kts 348°
2026-04-24 22:13 39.32520 112.24188 30155 ft 458 kts 348°
2026-04-24 22:13 39.38780 112.22656 30157 ft 458 kts 348°
2026-04-24 22:14 39.45040 112.21122 30161 ft 458 kts 348°
2026-04-24 22:14 39.51320 112.19584 30148 ft 459 kts 348°
2026-04-24 22:15 39.57620 112.18062 30150 ft 460 kts 348°
2026-04-24 22:15 39.63925 112.16542 30147 ft 461 kts 348°
2026-04-24 22:16 39.70231 112.15015 30146 ft 461 kts 348°
2026-04-24 22:16 39.76553 112.13479 30142 ft 462 kts 348°
2026-04-24 22:17 39.82886 112.11938 30148 ft 463 kts 348°
2026-04-24 22:17 39.89190 112.10400 30142 ft 464 kts 348°
2026-04-24 22:18 39.95524 112.08853 30146 ft 465 kts 347°
2026-04-24 22:18 40.01894 112.07293 30140 ft 465 kts 347°
2026-04-24 22:19 40.08270 112.05722 30148 ft 466 kts 347°
2026-04-24 22:19 40.14649 112.04146 30140 ft 467 kts 347°
2026-04-24 22:20 40.21043 112.02566 30143 ft 467 kts 347°
2026-04-24 22:20 40.27421 112.01011 30136 ft 467 kts 348°
2026-04-24 22:21 40.33832 111.99456 30138 ft 467 kts 348°
2026-04-24 22:21 40.40164 111.97913 30138 ft 466 kts 348°
2026-04-24 22:22 40.46579 111.96449 30132 ft 467 kts 348°
2026-04-24 22:22 40.52986 111.95027 30130 ft 467 kts 348°
2026-04-24 22:23 40.59380 111.93586 30129 ft 467 kts 348°
2026-04-24 22:23 40.65784 111.92024 30145 ft 466 kts 346°
2026-04-24 22:24 40.72102 111.90115 30125 ft 465 kts 345°
2026-04-24 22:24 40.78317 111.87785 30119 ft 464 kts 341°
2026-04-24 22:25 40.84501 111.85306 30126 ft 464 kts 341°
2026-04-24 22:25 40.90682 111.82832 30126 ft 464 kts 341°
2026-04-24 22:26 40.96875 111.80368 30127 ft 464 kts 341°
2026-04-24 22:26 41.02985 111.77946 30075 ft 452 kts 342°
2026-04-24 22:27 41.08965 111.75567 30108 ft 453 kts 342°
2026-04-24 22:27 41.15015 111.73155 30101 ft 455 kts 342°
2026-04-24 22:28 41.21091 111.70727 30083 ft 456 kts 342°
2026-04-24 22:28 41.27167 111.68297 30074 ft 456 kts 342°
2026-04-24 22:29 41.36249 111.64654 30073 ft 453 kts 341°
2026-04-24 22:29 41.42270 111.62234 30064 ft 451 kts 341°
2026-04-24 22:30 41.48266 111.59818 30067 ft 449 kts 341°
2026-04-24 22:30 41.54247 111.57404 30064 ft 448 kts 341°
2026-04-24 22:31 41.60213 111.54991 30061 ft 448 kts 341°
2026-04-24 22:31 41.66173 111.52576 30053 ft 448 kts 341°
2026-04-24 22:32 41.72146 111.50150 30047 ft 448 kts 341°
2026-04-24 22:32 41.78113 111.47723 30039 ft 448 kts 340°
2026-04-24 22:33 41.84086 111.45289 30039 ft 449 kts 340°
2026-04-24 22:33 41.90067 111.42847 30028 ft 449 kts 340°
2026-04-24 22:34 41.96046 111.40400 30022 ft 449 kts 340°
2026-04-24 22:34 42.02015 111.37953 30017 ft 449 kts 340°
2026-04-24 22:35 42.07974 111.35504 30012 ft 449 kts 340°
2026-04-24 22:35 42.13964 111.33038 30009 ft 449 kts 340°
2026-04-24 22:36 42.19928 111.30579 29999 ft 449 kts 340°
2026-04-24 22:36 42.24907 111.28529 29988 ft 448 kts 340°
2026-04-24 22:37 42.30862 111.26081 29989 ft 448 kts 340°
2026-04-24 22:37 42.36836 111.23620 29980 ft 448 kts 340°
2026-04-24 22:38 42.42800 111.21157 29975 ft 448 kts 340°
2026-04-24 22:38 42.48762 111.18689 29970 ft 448 kts 340°
2026-04-24 22:39 42.54736 111.16211 29964 ft 448 kts 339°
2026-04-24 22:39 42.60697 111.13734 29963 ft 448 kts 339°
2026-04-24 22:40 42.66656 111.11252 29949 ft 448 kts 339°
2026-04-24 22:40 42.72612 111.08766 29944 ft 448 kts 339°
2026-04-24 22:41 42.78577 111.06272 29952 ft 448 kts 339°
2026-04-24 22:41 42.84531 111.03778 29954 ft 448 kts 339°
2026-04-24 22:42 42.90456 111.01290 29948 ft 448 kts 339°
2026-04-24 22:42 42.96413 110.98784 29946 ft 448 kts 339°
2026-04-24 22:43 43.02365 110.96275 29941 ft 448 kts 339°
2026-04-24 22:43 43.08340 110.93751 29945 ft 448 kts 339°
2026-04-24 22:44 43.14301 110.91228 29940 ft 449 kts 339°
2026-04-24 22:44 43.20234 110.88541 29932 ft 446 kts 334°
2026-04-24 22:45 43.25741 110.84727 29932 ft 442 kts 326°
2026-04-24 22:45 43.31022 110.80400 29923 ft 442 kts 326°
2026-04-24 22:46 43.36294 110.76085 29914 ft 442 kts 326°
2026-04-24 22:46 43.41569 110.71783 29913 ft 443 kts 326°
2026-04-24 22:47 43.46873 110.67459 29903 ft 443 kts 326°
2026-04-24 22:47 43.52176 110.63129 29898 ft 443 kts 326°
2026-04-24 22:48 43.57475 110.58793 29891 ft 443 kts 325°
2026-04-24 22:48 43.62772 110.54449 29888 ft 443 kts 325°
2026-04-24 22:49 43.68076 110.50090 29879 ft 443 kts 325°
2026-04-24 22:49 43.73364 110.45735 29878 ft 443 kts 325°
2026-04-24 22:50 43.78660 110.41364 29877 ft 443 kts 325°
2026-04-24 22:50 43.83957 110.36983 29876 ft 443 kts 325°
2026-04-24 22:51 43.89252 110.32595 29867 ft 444 kts 325°
2026-04-24 22:51 43.94543 110.28202 29864 ft 444 kts 325°
2026-04-24 22:52 43.99852 110.23783 29874 ft 445 kts 325°
2026-04-24 22:52 44.05166 110.19351 29872 ft 446 kts 324°
2026-04-24 22:53 44.10477 110.14912 29879 ft 446 kts 324°
2026-04-24 22:53 44.15801 110.10454 29865 ft 446 kts 324°
2026-04-24 22:54 44.21119 110.05990 29870 ft 446 kts 324°
2026-04-24 22:54 44.26436 110.01518 29864 ft 446 kts 324°
2026-04-24 22:55 44.31747 109.97041 29868 ft 446 kts 324°
2026-04-24 22:55 44.37065 109.92548 29871 ft 446 kts 324°
2026-04-24 22:56 44.42374 109.88055 29885 ft 447 kts 324°
2026-04-24 22:56 44.45037 109.85793 30169 ft 447 kts 324°
2026-04-24 22:56 44.47680 109.83548 30635 ft 443 kts 324°
2026-04-24 22:57 44.50261 109.81354 31113 ft 439 kts 324°
2026-04-24 22:57 44.52897 109.79110 31577 ft 435 kts 324°
2026-04-24 22:57 44.55449 109.76933 31812 ft 435 kts 324°
2026-04-24 22:57 44.58078 109.74686 31834 ft 437 kts 324°
2026-04-24 22:58 44.63226 109.70280 31870 ft 435 kts 324°
2026-04-24 22:58 44.68385 109.65858 31877 ft 434 kts 324°
2026-04-24 22:59 44.73529 109.61440 31881 ft 433 kts 324°
2026-04-24 23:00 44.81257 109.54784 31874 ft 434 kts 324°
2026-04-24 23:00 44.86410 109.50334 31880 ft 435 kts 324°
2026-04-24 23:01 44.91579 109.45861 31873 ft 436 kts 324°
2026-04-24 23:01 44.96752 109.41376 31872 ft 437 kts 324°
2026-04-24 23:02 45.01942 109.36865 31875 ft 438 kts 324°
2026-04-24 23:02 45.07130 109.32347 31882 ft 438 kts 324°
2026-04-24 23:03 45.12335 109.27805 31882 ft 439 kts 324°
2026-04-24 23:03 45.17539 109.23253 31880 ft 440 kts 324°
2026-04-24 23:04 45.22747 109.18687 31884 ft 441 kts 324°
2026-04-24 23:04 45.27969 109.14101 31880 ft 441 kts 324°
2026-04-24 23:05 45.33180 109.09513 31883 ft 441 kts 324°
2026-04-24 23:05 45.38398 109.04909 31905 ft 441 kts 324°
2026-04-24 23:06 45.43583 109.00323 31908 ft 441 kts 324°
2026-04-24 23:06 45.48794 108.95705 31911 ft 441 kts 324°
2026-04-24 23:07 45.54007 108.91075 31917 ft 441 kts 324°
2026-04-24 23:07 45.59214 108.86440 31915 ft 441 kts 324°
2026-04-24 23:08 45.64417 108.81797 31913 ft 441 kts 324°
2026-04-24 23:08 45.69615 108.77149 31925 ft 440 kts 324°
2026-04-24 23:09 45.74811 108.72494 31930 ft 440 kts 324°
2026-04-24 23:09 45.80003 108.67836 31937 ft 440 kts 324°
2026-04-24 23:10 45.85189 108.63175 31937 ft 440 kts 324°
2026-04-24 23:10 45.90376 108.58501 31937 ft 440 kts 324°
2026-04-24 23:11 45.95554 108.53825 31939 ft 440 kts 324°
2026-04-24 23:11 46.00733 108.49137 31939 ft 440 kts 324°
2026-04-24 23:12 46.05914 108.44437 31942 ft 440 kts 324°
2026-04-24 23:12 46.11088 108.39732 31948 ft 440 kts 324°
2026-04-24 23:13 46.16234 108.35043 31945 ft 440 kts 324°
2026-04-24 23:13 46.21411 108.30314 31953 ft 440 kts 324°
2026-04-24 23:14 46.26588 108.25575 31948 ft 441 kts 324°
2026-04-24 23:14 46.31773 108.20818 31958 ft 441 kts 324°
2026-04-24 23:15 46.36955 108.16053 31965 ft 441 kts 324°
2026-04-24 23:15 46.42143 108.11271 31962 ft 442 kts 324°
2026-04-24 23:16 46.47333 108.06476 31972 ft 442 kts 324°
2026-04-24 23:16 46.52516 108.01678 31974 ft 442 kts 324°
2026-04-24 23:17 46.57696 107.96870 31979 ft 442 kts 324°
2026-04-24 23:17 46.62888 107.92041 31977 ft 442 kts 324°
2026-04-24 23:18 46.67193 107.88028 31985 ft 442 kts 324°
2026-04-24 23:18 46.72372 107.83190 31990 ft 442 kts 324°
2026-04-24 23:19 46.77553 107.78338 31991 ft 442 kts 324°
2026-04-24 23:19 46.82728 107.73482 31991 ft 442 kts 324°
2026-04-24 23:20 46.87898 107.68619 31996 ft 442 kts 324°
2026-04-24 23:20 46.93062 107.63749 32004 ft 441 kts 324°
2026-04-24 23:21 46.98218 107.58877 32009 ft 441 kts 324°
2026-04-24 23:21 47.03375 107.53990 32008 ft 441 kts 324°
2026-04-24 23:22 47.08523 107.49103 32010 ft 441 kts 324°
2026-04-24 23:22 47.13673 107.44205 32023 ft 440 kts 324°
2026-04-24 23:23 47.18816 107.39304 32017 ft 440 kts 324°
2026-04-24 23:23 47.23919 107.34430 32036 ft 440 kts 324°
2026-04-24 23:24 47.29061 107.29506 32029 ft 440 kts 324°
2026-04-24 23:24 47.34191 107.24582 32043 ft 440 kts 324°
2026-04-24 23:25 47.39320 107.19647 32057 ft 440 kts 324°
2026-04-24 23:25 47.44451 107.14699 32060 ft 440 kts 324°
2026-04-24 23:26 47.49579 107.09741 32062 ft 441 kts 324°
2026-04-24 23:26 47.54710 107.04769 32074 ft 441 kts 324°
2026-04-24 23:27 47.59840 106.99787 32069 ft 441 kts 324°
2026-04-24 23:27 47.64973 106.94789 32076 ft 441 kts 324°
2026-04-24 23:28 47.70093 106.89793 32074 ft 440 kts 324°
2026-04-24 23:28 47.75207 106.84789 32081 ft 440 kts 324°
2026-04-24 23:29 47.80314 106.79781 32127 ft 439 kts 324°
2026-04-24 23:29 47.85408 106.74781 32124 ft 438 kts 325°
2026-04-24 23:30 47.90751 106.70534 32127 ft 439 kts 332°
2026-04-24 23:30 47.96315 106.66672 32118 ft 437 kts 332°
2026-04-24 23:31 48.01788 106.62851 32124 ft 436 kts 332°
2026-04-24 23:31 48.07274 106.58988 32127 ft 436 kts 332°
2026-04-24 23:32 48.12753 106.55110 32117 ft 435 kts 332°
2026-04-24 23:32 48.18216 106.51232 32140 ft 434 kts 332°
2026-04-24 23:33 48.23687 106.47339 32143 ft 434 kts 332°
2026-04-24 23:33 48.29146 106.43444 32148 ft 434 kts 332°
2026-04-24 23:34 48.34591 106.39552 32147 ft 434 kts 332°
2026-04-24 23:34 48.40051 106.35640 32150 ft 434 kts 331°
2026-04-24 23:35 48.45508 106.31720 32160 ft 434 kts 331°
2026-04-24 23:35 48.50958 106.27796 32161 ft 434 kts 331°
2026-04-24 23:36 48.56406 106.23864 32166 ft 433 kts 331°
2026-04-24 23:36 48.61840 106.19934 32170 ft 433 kts 331°
2026-04-24 23:37 48.67236 106.16021 32174 ft 432 kts 331°
2026-04-24 23:37 48.75360 106.10111 32184 ft 431 kts 331°
2026-04-24 23:38 48.80761 106.06171 32187 ft 431 kts 331°
2026-04-24 23:38 48.86160 106.02222 32187 ft 430 kts 331°
2026-04-24 23:39 48.91577 105.98251 32200 ft 429 kts 331°
2026-04-24 23:39 48.96914 105.94329 32203 ft 428 kts 331°
2026-04-24 23:40 49.02302 105.90360 32197 ft 427 kts 331°
2026-04-24 23:40 49.07613 105.86439 32197 ft 426 kts 331°
2026-04-24 23:41 49.12936 105.82499 32215 ft 425 kts 331°
2026-04-24 23:41 49.18256 105.78552 32223 ft 424 kts 331°
2026-04-24 23:42 49.23556 105.74610 32224 ft 423 kts 331°
2026-04-24 23:42 49.28842 105.70670 32223 ft 423 kts 330°
2026-04-24 23:43 49.34127 105.66721 32225 ft 422 kts 330°
2026-04-24 23:43 49.39392 105.62776 32232 ft 421 kts 330°
2026-04-24 23:44 49.44653 105.58826 32231 ft 421 kts 330°
2026-04-24 23:44 49.46397 105.57514 32230 ft 420 kts 330°